Probability
32 39 58 61 58 55 58 55 52 48 52 45 39 42 35 29 29 26 29 29 29 26 26 23 16 16 16 13 13 13 13 10 10 10 10 10 3 6 10 19 6 13 13
39 39 58 58 58 58 52 52 52 48 42 39 42 39 32 32 29 23 26 23 19 19 23 23 19 16 13 16 10 10 10 13 10 10 10 6 13 6 6 13 16 13 13
42 39 55 58 58 55 52 48 48 42 42 39 35 29 29 29 26 23 23 23 23 19 19 19 19 16 16 16 13 10 10 10 13 6 6 0 3 10 6 13 13 13 10
39 32 48 55 55 55 52 48 42 42 42 32 35 32 32 32 29 26 23 23 19 19 16 16 13 13 10 13 13 13 6 6 10 6 0 0 0 10 6 6 13 10 6
39 39 45 55 52 52 45 42 42 39 35 35 39 35 35 29 29 29 26 23 16 16 10 10 10 6 6 6 6 10 6 3 3 3 0 0 0 6 6 3 0 0 0
39 39 45 52 52 48 48 48 48 39 35 35 32 32 29 29 29 19 13 13 10 13 13 6 6 6 6 6 3 3 3 3 0 0 0 0 0 10 3 0 0 3 3
32 35 42 48 48 48 45 45 39 39 39 32 35 29 29 26 26 26 26 16 13 10 6 6 6 6 6 6 6 3 3 0 0 0 3 0 0 6 3 3 3 6 6
35 35 42 48 45 45 45 39 39 39 39 35 29 29 26 26 26 26 23 19 19 6 6 6 6 6 6 3 3 3 3 0 0 0 3 0 6 6 6 6 10 10 6
35 35 39 42 42 39 39 39 35 35 35 32 29 26 29 26 23 19 19 19 16 10 10 6 6 6 0 0 0 0 0 0 0 0 3 0 6 6 3 3 3 6 10
29 29 26 32 29 29 26 26 26 26 26 29 19 16 16 16 16 16 10 10 13 13 3 3 3 0 3 0 0 0 0 0 0 3 0 0 0 6 3 3 3 3 6
26 29 26 26 26 26 23 19 16 16 16 13 10 6 3 6 3 3 3 3 3 6 3 0 0 0 0 0 0 0 0 0 0 0 0 0 0 0 0 3 3 3 3
26 23 26 23 23 16 13 6 6 10 6 6 6 0 3 3 0 0 0 0 3 0 0 0 0 0 0 0 0 0 0 0 0 0 0 0 0 0 0 0 0 3 3
16 19 23 23 16 13 6 6 6 6 6 3 6 6 0 0 0 0 0 0 0 0 0 0 0 0 0 0 0 0 0 0 0 0 0 0 0 0 0 0 0 0 3
19 16 13 16 13 10 6 6 3 6 6 3 3 3 3 0 0 0 0 0 0 0 0 0 0 0 0 0 0 0 0 0 0 0 0 0 0 0 0 0 0 0 0
13 13 13 16 13 10 10 10 6 3 3 3 3 3 3 3 0 0 0 0 0 0 0 0 0 0 0 0 0 0 0 0 0 0 0 0 0 0 0 0 0 0 0
13 10 10 13 13 10 10 10 6 6 10 10 3 3 3 3 3 0 0 0 0 0 0 0 0 0 0 0 0 0 0 0 0 0 0 0 0 0 0 0 0 0 0
13 10 10 10 13 10 10 6 6 6 10 3 3 3 3 3 3 0 0 0 0 0 0 0 0 0 0 0 0 0 0 0 0 0 0 0 0 0 0 0 0 0 0
6 10 6 10 10 10 10 3 3 3 6 6 6 3 3 3 0 0 0 0 0 0 0 0 0 0 0 0 0 0 0 0 0 0 0 0 0 0 0 0 0 0 0
6 6 6 3 6 6 6 3 3 3 6 6 6 3 3 3 0 0 0 0 0 0 0 0 0 0 0 0 0 0 0 0 0 0 0 0 0 0 0 0 0 0 0
6 6 6 6 6 3 3 3 3 3 3 6 6 3 3 3 3 0 0 0 0 0 0 0 0 0 0 0 0 0 0 0 0 0 0 0 0 0 0 0 0 0 0
3 6 6 6 6 3 3 0 3 3 3 3 6 3 3 3 0 0 0 0 0 0 0 0 0 0 0 0 0 0 0 0 0 0 0 0 0 0 0 0 0 0 0
3 3 6 6 6 3 3 3 0 0 0 0 3 3 3 3 0 0 0 0 0 0 0 0 0 0 0 0 0 0 0 0 0 0 0 0 0 0 0 0 0 0 0
3 3 3 3 6 6 3 3 3 0 3 0 0 0 3 0 0 0 0 0 0 0 0 0 0 0 0 0 0 0 0 0 0 0 0 0 0 0 0 0 0 0 0
3 3 3 3 3 3 0 0 0 0 0 0 0 0 0 0 0 0 0 0 0 0 0 0 0 0 0 0 0 0 0 0 0 0 0 0 0 0 0 0 0 0 0
3 3 3 3 3 3 0 0 0 0 0 0 0 0 0 0 0 0 0 0 0 0 0 0 0 0 0 0 0 0 0 0 0 0 0 0 0 0 0 0 0 0 0
3 3 3 3 3 3 0 0 0 0 0 0 0 0 0 0 0 0 0 0 0 0 0 0 0 0 0 0 0 0 0 0 0 0 0 0 0 0 0 0 0 0 0
Height
5860 5861 5863 5864 5865 5866 5867 5868 5869 5870 5870 5871 5872 5872 5872 5872 5873 5873 5873 5873 5873 5873 5873 5873 5873 5872 5872 5871 5871 5871 5870 5870 5870 5869 5869 5868 5868 5867 5866 5866 5865 5864 5863
5858 5859 5860 5862 5863 5865 5866 5867 5867 5868 5869 5869 5870 5871 5871 5871 5872 5872 5872 5872 5872 5872 5871 5871 5871 5871 5871 5870 5870 5869 5869 5869 5868 5868 5867 5867 5866 5865 5864 5863 5862 5862 5861
5855 5856 5858 5859 5861 5862 5863 5864 5865 5866 5867 5868 5868 5869 5869 5870 5870 5870 5870 5870 5870 5870 5870 5870 5870 5869 5869 5869 5868 5868 5867 5867 5866 5866 5865 5864 5863 5863 5862 5861 5860 5859 5858
5852 5854 5855 5857 5858 5860 5861 5862 5863 5864 5865 5866 5866 5867 5867 5868 5868 5868 5868 5868 5868 5868 5868 5868 5867 5867 5867 5866 5866 5866 5865 5864 5864 5863 5862 5862 5861 5860 5859 5858 5856 5856 5854
5849 5851 5852 5854 5855 5857 5858 5859 5860 5861 5862 5863 5864 5864 5865 5865 5865 5866 5866 5866 5866 5866 5866 5865 5865 5865 5864 5864 5864 5863 5862 5862 5861 5861 5860 5859 5858 5857 5855 5854 5853 5852 5851
5845 5847 5849 5851 5852 5853 5855 5856 5857 5858 5859 5860 5861 5862 5862 5862 5863 5863 5863 5863 5863 5863 5863 5863 5863 5862 5862 5861 5861 5860 5860 5859 5858 5858 5857 5856 5855 5853 5852 5851 5850 5848 5847
5841 5843 5845 5847 5849 5850 5851 5853 5854 5855 5856 5857 5858 5859 5859 5859 5860 5860 5860 5860 5860 5860 5860 5860 5860 5860 5859 5859 5858 5857 5857 5856 5855 5854 5853 5852 5851 5850 5848 5847 5846 5844 5843
5837 5839 5841 5843 5845 5846 5848 5849 5851 5852 5853 5854 5855 5855 5856 5856 5857 5857 5857 5857 5857 5857 5857 5857 5857 5856 5856 5855 5855 5854 5853 5852 5852 5851 5850 5848 5847 5846 5844 5843 5842 5840 5839
5832 5834 5837 5839 5841 5842 5844 5845 5847 5848 5849 5850 5851 5852 5852 5853 5853 5854 5854 5854 5854 5854 5854 5854 5853 5853 5852 5852 5851 5850 5849 5849 5848 5847 5845 5844 5843 5841 5840 5839 5837 5836 5834
5827 5829 5832 5834 5836 5838 5840 5841 5843 5844 5845 5846 5847 5848 5849 5849 5850 5850 5850 5850 5850 5850 5850 5850 5850 5849 5849 5848 5847 5846 5845 5844 5844 5843 5841 5840 5838 5837 5835 5834 5832 5831 5829
5821 5824 5827 5829 5831 5833 5835 5837 5838 5840 5841 5842 5843 5844 5845 5846 5846 5846 5847 5847 5847 5847 5846 5846 5846 5845 5845 5844 5843 5842 5841 5840 5839 5838 5837 5835 5833 5832 5830 5829 5827 5825 5823
5816 5819 5821 5824 5826 5828 5830 5832 5834 5835 5836 5838 5839 5840 5841 5841 5842 5842 5843 5843 5843 5843 5842 5842 5842 5841 5841 5840 5839 5838 5837 5836 5834 5833 5831 5830 5828 5826 5825 5823 5821 5819 5818
5809 5812 5815 5818 5821 5823 5825 5827 5828 5830 5832 5833 5834 5835 5836 5837 5838 5838 5839 5839 5839 5838 5838 5838 5837 5837 5836 5835 5834 5833 5832 5831 5829 5828 5826 5824 5822 5820 5819 5817 5815 5813 5811
5803 5806 5809 5812 5815 5817 5819 5821 5823 5825 5827 5828 5829 5830 5832 5832 5833 5834 5834 5834 5834 5834 5833 5833 5832 5832 5831 5830 5829 5828 5826 5825 5824 5822 5820 5818 5816 5814 5812 5811 5809 5806 5804
5796 5799 5803 5806 5808 5811 5813 5815 5817 5819 5821 5823 5824 5825 5826 5827 5828 5829 5829 5829 5829 5829 5828 5828 5827 5826 5826 5824 5823 5822 5821 5819 5818 5816 5814 5812 5810 5808 5806 5804 5801 5799 5797
5789 5792 5796 5799 5802 5804 5807 5809 5811 5814 5815 5817 5818 5820 5821 5822 5823 5823 5824 5824 5824 5823 5823 5823 5822 5821 5820 5819 5817 5816 5814 5813 5811 5809 5807 5805 5803 5801 5798 5796 5794 5791 5789
5781 5785 5788 5792 5795 5798 5800 5803 5805 5807 5809 5811 5812 5814 5815 5816 5817 5818 5818 5818 5818 5818 5818 5817 5816 5815 5814 5813 5811 5810 5808 5806 5804 5802 5800 5798 5795 5793 5791 5788 5786 5783 5781
5773 5777 5781 5784 5788 5791 5794 5796 5798 5801 5803 5805 5806 5808 5809 5810 5811 5812 5812 5812 5812 5812 5812 5811 5810 5809 5808 5806 5805 5803 5801 5799 5797 5795 5792 5790 5787 5785 5782 5780 5777 5774 5772
5766 5770 5773 5777 5780 5784 5787 5789 5792 5794 5796 5798 5800 5801 5803 5804 5805 5805 5806 5806 5806 5806 5805 5805 5804 5803 5801 5800 5798 5796 5794 5792 5790 5787 5785 5782 5779 5776 5774 5771 5768 5765 5762
5757 5762 5765 5769 5773 5776 5779 5782 5785 5787 5789 5791 5792 5794 5796 5797 5798 5799 5799 5799 5799 5799 5798 5798 5797 5796 5794 5793 5791 5789 5786 5784 5782 5779 5777 5774 5771 5768 5765 5761 5759 5756 5753
5749 5754 5757 5761 5765 5768 5771 5775 5777 5780 5782 5784 5785 5787 5789 5790 5791 5792 5792 5792 5792 5792 5791 5791 5790 5788 5787 5785 5784 5781 5779 5777 5774 5771 5768 5765 5762 5759 5756 5752 5749 5746 5743
5741 5745 5749 5753 5757 5760 5764 5767 5769 5772 5774 5777 5778 5780 5781 5783 5784 5785 5785 5785 5785 5785 5784 5783 5782 5781 5779 5777 5775 5773 5772 5770 5767 5763 5760 5756 5753 5750 5746 5743 5739 5736 5732
5732 5736 5740 5744 5748 5752 5755 5758 5761 5764 5767 5769 5771 5772 5774 5775 5776 5777 5777 5777 5777 5777 5776 5775 5774 5773 5771 5769 5766 5764 5762 5760 5758 5756 5751 5747 5744 5740 5736 5733 5729 5725 5721
5722 5727 5731 5735 5739 5743 5747 5750 5753 5756 5759 5761 5763 5765 5766 5768 5768 5769 5769 5770 5770 5769 5768 5768 5766 5765 5763 5761 5758 5755 5753 5750 5748 5746 5743 5738 5734 5730 5726 5722 5718 5714 5710
5713 5717 5722 5726 5730 5734 5738 5741 5745 5748 5751 5753 5755 5757 5758 5760 5761 5761 5762 5762 5761 5761 5760 5759 5758 5757 5755 5752 5750 5747 5744 5741 5737 5735 5733 5729 5725 5720 5715 5711 5707 5703 5699
5703 5708 5712 5717 5721 5725 5729 5732 5736 5739 5742 5744 5746 5748 5750 5751 5752 5753 5753 5753 5753 5753 5752 5751 5750 5748 5746 5744 5741 5738 5735 5732 5728 5725 5722 5719 5715 5711 5705 5701 5697 5692 5688
Wind_Speed
15 14 13 13 13 13 12 11 11 10 10 9 9 9 9 9 9 9 9 9 9 10 10 10 10 10 10 10 11 11 11 11 12 12 13 13 14 14 14 15 15 15 16
17 16 15 15 14 14 13 13 12 12 11 11 11 11 10 10 11 11 11 11 11 11 11 11 11 11 11 11 11 12 12 13 13 14 14 15 15 16 16 17 17 17 18
18 18 17 16 16 15 15 14 14 13 13 13 13 12 12 12 12 12 13 13 12 12 12 12 13 13 13 13 13 13 13 14 15 15 16 16 17 17 18 18 18 18 19
20 19 18 18 17 17 16 16 15 15 15 14 14 14 14 14 14 14 14 14 14 14 14 14 14 14 15 15 15 16 16 16 16 17 17 17 18 18 19 19 19 20 20
22 21 20 19 19 18 18 17 17 16 16 16 15 15 15 15 15 15 15 15 15 15 15 15 15 15 16 16 17 17 17 18 18 18 18 19 20 20 20 20 21 21 22
23 23 22 21 21 20 19 19 18 17 17 17 17 17 17 17 17 17 16 16 16 16 16 16 16 16 17 17 18 18 18 19 19 19 20 21 21 21 21 22 22 23 23
25 25 24 23 23 22 21 20 19 19 19 19 18 18 18 18 18 17 17 17 17 17 17 17 18 18 18 19 19 19 20 20 20 21 22 22 22 22 22 23 23 24 24
27 26 26 25 24 23 22 21 21 20 20 20 20 20 20 19 19 18 18 18 18 18 18 18 19 19 20 20 20 21 21 21 22 23 23 23 23 24 24 24 24 25 25
29 28 27 26 26 25 23 23 22 22 21 21 21 21 20 20 19 19 19 19 19 19 19 19 20 20 20 21 21 22 22 23 23 24 24 24 24 25 25 25 25 26 26
31 30 29 28 27 26 25 24 24 23 23 22 22 22 21 21 21 21 21 20 20 20 20 20 20 20 21 21 22 22 23 24 25 25 25 26 26 26 26 27 27 27 28
32 31 31 30 29 28 27 26 25 25 24 23 23 22 22 22 22 22 22 22 21 21 21 21 21 22 22 23 23 24 25 25 26 26 26 27 27 28 28 28 28 28 29
34 33 32 31 31 29 28 27 27 26 25 24 24 24 23 23 23 23 23 23 22 22 22 23 23 23 24 24 25 26 26 27 27 27 28 28 29 29 29 29 29 30 30
36 35 34 33 32 31 30 29 28 27 26 26 25 25 25 24 24 24 24 24 24 24 24 24 25 25 25 26 27 27 28 28 28 29 29 30 30 30 30 30 31 31 31
37 37 36 35 34 33 32 31 30 29 28 28 27 27 26 26 26 26 25 25 25 25 26 26 27 27 27 27 28 29 29 29 29 30 30 31 31 31 32 32 32 33 33
39 38 37 36 35 34 33 32 31 30 30 29 29 28 28 27 27 27 26 26 26 26 27 28 28 28 28 28 29 29 30 30 30 31 32 32 32 33 33 34 34 34 35
41 40 39 38 37 36 34 33 32 32 31 30 30 30 29 29 28 28 27 27 27 28 28 28 29 29 30 30 30 31 31 31 32 32 33 34 34 35 35 35 36 36 36
42 41 40 39 38 37 36 35 34 33 33 32 31 31 30 30 29 29 28 28 28 29 30 30 30 30 31 31 32 32 32 33 33 33 34 35 35 36 37 37 37 38 38
43 42 42 40 39 38 37 36 35 35 34 33 32 32 31 30 30 30 29 29 30 30 31 31 31 32 32 33 33 33 33 34 35 35 35 36 36 37 38 38 38 39 39
44 43 42 41 41 40 38 37 36 36 35 34 34 33 32 31 31 31 30 30 31 31 32 32 32 33 33 34 34 34 35 35 36 36 36 37 37 38 39 40 40 40 40
45 44 43 42 42 41 40 39 38 37 36 35 34 34 33 32 32 32 31 32 32 32 33 33 33 34 34 34 34 35 35 36 36 37 37 38 38 39 39 40 41 41 42
45 44 44 43 42 42 41 40 38 38 37 36 36 35 34 33 33 33 33 33 34 33 34 34 34 35 35 35 35 35 36 36 37 38 38 39 39 40 40 41 42 43 43
46 45 44 43 42 42 41 41 40 39 38 37 36 36 35 35 34 34 34 35 34 35 35 35 35 36 36 36 36 37 37 37 37 38 39 40 40 41 42 43 44 44 45
47 46 45 44 43 42 42 41 41 40 39 38 37 37 36 36 36 35 35 35 35 35 35 35 36 36 36 37 37 38 38 38 38 38 40 41 42 43 43 44 45 46 47
48 47 46 45 44 43 42 41 41 40 40 40 39 38 37 37 36 35 35 35 36 35 36 36 36 37 37 38 38 39 40 40 41 40 41 42 43 44 45 45 46 47 49
49 48 47 46 45 44 43 42 41 41 40 40 39 39 38 37 37 36 36 36 36 36 36 36 37 38 39 39 39 40 40 41 42 42 42 42 43 44 45 46 47 48 49
49 49 49 48 46 45 44 43 42 41 40 40 39 39 39 38 37 37 36 37 37 37 37 37 39 39 39 40 40 41 41 42 43 43 43 43 43 43 44 46 47 48 49
Wind_Direction
231 232 234 237 239 240 241 242 243 244 246 250 254 259 262 267 271 273 278 281 285 289 291 292 294 296 298 298 297 297 297 297 299 300 302 302 303 304 304 305 305 303 302
234 234 236 237 240 241 242 243 245 247 249 252 257 261 264 268 272 273 276 280 284 286 288 289 291 293 295 295 294 295 295 294 296 297 299 300 300 302 302 302 302 301 300
237 237 238 239 240 243 244 244 245 248 252 255 258 262 265 269 271 274 276 279 282 283 284 285 287 290 291 292 293 293 293 293 294 295 296 298 300 300 300 300 300 300 300
238 239 241 241 242 244 246 247 247 249 252 256 260 263 266 270 272 274 275 278 280 282 282 283 286 288 289 291 292 293 293 293 295 296 297 298 300 300 300 300 300 300 300
238 239 241 243 243 244 247 249 250 251 254 258 261 264 267 270 272 274 275 276 278 279 280 282 284 286 288 290 291 292 292 293 294 295 297 299 300 301 299 299 298 299 299
239 239 241 243 245 246 248 250 251 253 256 259 262 265 267 270 272 274 274 275 276 277 280 282 284 286 288 289 291 292 293 294 295 296 297 298 299 300 300 299 299 299 299
239 240 242 243 245 247 249 250 252 255 257 260 262 264 267 269 271 273 275 276 277 278 280 282 283 285 287 289 291 291 291 292 294 297 298 298 299 299 299 299 299 299 299
239 241 242 243 244 247 249 251 253 256 258 260 262 264 266 268 270 272 274 276 277 279 281 282 283 285 287 288 290 290 291 292 294 296 297 298 299 299 298 298 298 298 298
238 240 241 243 244 246 249 251 254 256 258 260 262 264 266 267 269 271 273 276 278 279 281 282 284 286 287 288 289 290 291 292 293 294 295 296 297 297 297 298 298 298 298
238 239 240 242 243 245 248 251 253 255 257 259 261 263 265 267 269 271 273 275 277 279 281 283 284 286 288 288 289 290 291 292 292 292 294 294 295 295 295 296 297 297 297
238 238 239 241 243 245 247 250 253 254 256 258 260 262 265 267 269 270 273 274 276 278 280 282 284 286 287 288 289 290 291 292 292 292 293 293 294 294 295 295 296 296 296
238 239 240 242 244 246 248 250 252 254 255 257 259 261 263 266 268 270 273 275 277 278 280 282 283 286 287 288 289 290 290 291 291 292 292 293 293 293 294 294 295 296 296
238 239 240 242 244 246 248 250 252 253 255 256 258 260 262 265 267 270 272 274 276 278 281 283 284 285 287 288 289 290 290 290 291 292 292 292 292 292 293 294 295 296 295
237 238 240 242 244 245 247 249 251 252 254 256 258 259 262 264 267 269 271 273 276 279 281 283 284 285 287 288 289 290 290 290 291 292 292 292 292 291 292 293 294 294 294
238 238 240 241 243 245 247 250 251 253 255 257 258 259 261 264 266 268 270 272 276 278 281 283 284 286 287 288 289 290 290 290 291 292 292 292 291 292 292 292 293 293 293
238 239 239 241 242 245 247 249 252 253 255 256 258 260 261 263 266 267 270 272 275 278 280 284 285 286 287 288 290 290 291 291 292 292 292 292 291 291 292 292 292 292 292
238 239 239 241 243 245 247 249 252 253 254 255 257 259 261 263 265 267 269 273 275 278 280 283 285 287 288 289 290 290 291 292 292 292 293 292 292 292 292 292 292 291 292
238 239 240 241 243 244 246 249 251 252 254 255 257 259 261 262 264 267 269 272 275 278 280 283 285 287 289 289 290 290 291 292 292 293 293 293 292 292 292 292 292 292 292
238 239 241 242 243 244 246 248 250 252 254 255 257 259 260 263 264 266 269 272 275 278 280 283 285 287 289 290 290 291 291 292 293 293 294 293 293 293 293 292 292 292 292
238 239 241 242 243 245 246 247 249 252 254 255 257 258 261 263 265 268 270 272 275 278 281 282 285 288 289 290 290 291 291 291 292 293 293 293 293 293 293 292 292 292 292
238 239 241 242 243 245 246 248 249 251 253 254 256 258 260 263 265 268 270 272 274 278 280 282 285 288 289 290 290 291 291 292 293 294 294 294 293 293 293 293 293 293 293
239 240 241 242 244 245 247 248 249 250 252 254 256 257 260 262 265 268 270 273 275 277 280 282 284 286 289 290 290 290 292 293 294 294 294 294 294 294 294 293 293 293 294
238 240 241 242 244 245 247 248 249 250 252 254 255 257 260 262 265 267 270 273 275 277 279 282 284 286 288 289 290 291 292 293 294 294 295 295 295 295 295 294 294 294 295
239 240 241 242 244 245 247 248 249 250 251 253 255 258 260 263 266 267 269 272 275 277 280 282 283 286 288 289 290 291 292 293 294 295 296 297 297 297 296 296 295 295 296
239 240 242 243 244 245 247 248 249 250 251 253 255 258 260 263 265 267 269 272 274 277 279 281 284 285 287 289 290 291 292 294 295 296 297 298 298 299 299 298 297 297 297
239 240 242 243 244 245 246 247 248 249 251 252 255 257 260 262 264 266 269 271 274 276 279 281 284 286 287 288 289 291 293 294 296 297 298 298 299 299 300 300 299 298 298